Location: Peebles
(55.6412°N, 3.1714°W)
Time: 15:15:19
(UTC+01:00)

FLOCK 4S 19 - Visible Passes

Search period start: 03 July 2022 00:00
Search period end: 13 July 2022 00:00
Orbit: 510 x 523 km, 97.4° (Epoch: 02 July)

Date Brightness Start Highest point End Pass type
(mag) Time Alt. Az. Time Alt. Az. Time Alt. Az.
03 Jul ? 23:18:00 10° SW 23:20:21 16° W 23:22:44 10° NW visible
04 Jul ? 23:02:50 10° SW 23:05:46 21° W 23:08:42 10° NW visible
09 Jul ? 23:25:43 10° WSW 23:27:39 13° W 23:29:35 10° NW visible
10 Jul ? 23:10:19 10° SW 23:12:58 18° W 23:15:39 10° NW visible
11 Jul ? 22:55:11 10° SSW 22:58:18 24° W 23:01:27 10° NW visible
